Tracking 28790 objects as of 19-Apr-2024
HD Live streaming from Space Station
objects crossing your sky now

STARLINK-3975

Track STARLINK-3975 now!
10-day predictions
STARLINK-3975 is classified as:


NORAD ID: 52620
Int'l Code: 2022-052Y
Perigee: 545.7 km
Apogee: 548.1 km
Inclination: 53.2 °
Period: 95.4 minutes
Semi major axis: 6917 km
RCS: Unknown
Launch date: May 14, 2022
Source: United States (US)
Launch site: AIR FORCE EASTERN TEST RANGE (AFETR)
Your satellite tracking list
Your tracking list is empty




NASA's NSSDC Master Catalog

Two Line Element Set (TLE):
1 52620U 22052Y   24109.31788631 -.00001250  00000-0 -60486-4 0  9997
2 52620  53.2168 143.3216 0001708 107.6392 252.4786 15.08825014106551
Source of the keplerian elements: AFSPC